Location: Milton Keynes
(52.0316°N, 0.7531°W)
Time: 11:10:41
(UTC+01:00)

ACS3 Solar Sail - Visible Passes

Search period start: 15 April 2026 00:00
Search period end: 25 April 2026 00:00
Orbit: 871 x 977 km, 97.2° (Epoch: 14 April)

Date Brightness Start Highest point End Pass type
(mag) Time Alt. Az. Time Alt. Az. Time Alt. Az.
15 Apr 3.3 01:04:36 10° NE 01:09:19 23° E 01:10:17 22° E visible
15 Apr 1.7 02:46:20 10° N 02:52:20 75° WNW 02:53:51 52° SW visible
15 Apr 3.4 04:29:58 10° NNW 04:33:51 18° NW 04:37:26 11° W visible
16 Apr 3.0 01:14:08 10° NNE 01:19:14 28° E 01:20:16 26° ESE visible
16 Apr 1.8 02:56:07 10° N 03:02:04 64° WNW 03:03:50 45° SW visible
16 Apr 3.6 04:40:01 10° NNW 04:43:26 16° NW 04:46:54 10° W visible
17 Apr 2.8 01:23:43 10° NNE 01:29:05 32° E 01:30:14 30° ESE visible
17 Apr 2.0 03:05:56 10° N 03:11:47 55° WNW 03:13:48 38° WSW visible
17 Apr 3.7 04:50:08 10° NNW 04:53:00 14° NW 04:55:53 10° WNW visible
18 Apr 2.6 01:33:19 10° NNE 01:38:56 38° E 01:40:12 35° ESE visible
18 Apr 2.2 03:15:44 10° N 03:21:28 47° WNW 03:23:46 33° WSW visible
18 Apr 3.8 05:00:24 10° NNW 05:02:32 12° NW 05:04:41 10° WNW visible
19 Apr 2.4 01:42:58 10° NNE 01:48:46 45° E 01:50:09 39° SE visible
19 Apr 2.4 03:25:33 10° N 03:31:08 41° WNW 03:33:44 28° WSW visible
19 Apr 3.9 05:11:10 10° NW 05:12:03 10° NW 05:12:57 10° NW visible
20 Apr 2.2 01:52:37 10° NNE 01:58:34 53° E 02:00:06 43° SE visible
20 Apr 2.7 03:35:23 10° N 03:40:47 35° WNW 03:43:40 23° WSW visible
21 Apr 3.9 00:22:19 10° NE 00:24:43 12° E 00:26:29 11° E visible
21 Apr 2.0 02:02:18 10° NNE 02:08:21 62° E 02:10:03 46° SSE visible
21 Apr 2.9 03:45:13 10° N 03:50:25 31° WNW 03:53:37 19° WSW visible
22 Apr 3.7 00:31:17 10° NE 00:34:39 15° E 00:36:25 13° E visible
22 Apr 1.8 02:12:00 10° NNE 02:18:06 73° E 02:19:59 46° S visible
22 Apr 3.0 03:55:05 10° N 04:00:01 27° WNW 04:03:33 16° WSW visible
23 Apr 3.6 00:40:32 10° NE 00:44:33 18° E 00:46:20 16° ESE visible
23 Apr 1.7 02:21:43 10° NNE 02:27:51 85° ESE 02:29:54 45° S visible
23 Apr 3.2 04:04:58 10° N 04:09:36 23° NW 04:13:28 13° W visible
24 Apr 3.4 00:49:54 10° NE 00:54:26 21° E 00:56:15 19° ESE visible
24 Apr 1.7 02:31:25 10° NNE 02:37:33 83° WNW 02:39:49 42° SSW visible
24 Apr 3.4 04:14:52 10° N 04:19:09 20° NW 04:23:23 10° W visible
